Cosmos 1420 Rocket - Orbit

View from above orbital plane
View from above orbital plane
View from above satellite
View from above satellite

Ground track
Ground track

The orbit data is extracted from the following two-line orbital elements,

1 13649U 82109B   13139.49187692  .00000187  00000-0  72504-4 0   388
2 13649 074.0010 236.6286 0018682 019.1606 041.7982 14.36486216597663
Epoch (UTC): 19 May 2013 11:48:18
Eccentricity: 0.0018682
inclination: 74.0010°
perigee height: 757 km
apogee height: 783 km
right ascension of ascending node: 236.6286°
argument of perigee: 19.1606°
revolutions per day: 14.36486216
mean anomaly at epoch: 41.7982°
orbit number at epoch: 59766

The dashed part of the orbit path shows where the satellite is in the earth's shadow,  

Developed and maintained by Chris Peat, Heavens-Above GmbH. Please read the updated FAQ before sending e-mail. Imprint. DLR